This demonstration page uses our WeatherBlox Daily Observations layout. Learn more.

Left ArrowRight Arrow

39.51506, -84.39828

Hourly Observations for June 4, 2020

Temp ( °F °C ) Dew Point ( °F °C ) Humidity (%) Winds ( mph kmh ) Pressure ( in mb ) Visibility ( mi km ) Precip ( " mm )
12:15 am 00:15 Partly Cloudy 65 18.2 65 18.1 99 99 Calm 29.86 1011 10 16.0934 0 0
12:35 am 00:35 Clear with Mist and Fog 65 18.4 65 18.4 100 100 Calm 29.85 1011 5 8.0467 0 0
12:55 am 00:55 Clear with Mist and Fog 64 18 64 18 100 100 Calm 29.85 1011 5 8.0467 0 0
1:15 am 01:15 Clear 65 18.3 65 18.3 100 100 Calm 29.83 1010 7 11.26538 0 0
1:35 am 01:35 Clear with Mist and Fog 65 18.1 65 18.1 100 100 Calm 29.83 1010 7 11.26538 0 0
1:55 am 01:55 Partly Cloudy with Mist and Fog 64 18 64 18 100 100 Calm 29.84 1010 7 11.26538 0 0
2:15 am 02:15 Clear with Mist and Fog 64 18 64 18 100 100 Calm 29.83 1010 7 11.26538 0 0
2:35 am 02:35 Clear with Mist and Fog 64 18 64 18 100 100 Calm 29.83 1010 5 8.0467 0 0
2:55 am 02:55 Hazy 64 18 N/A N/A Calm 29.82 1010 5 8.0467 0 0
3:15 am 03:15 Hazy 64 18 N/A N/A Calm 29.81 1009 5 8.0467 0.01 0.254
3:35 am 03:35 Clear with Mist and Fog 64 18 N/A N/A Calm 29.8 1009 4 6.43736 0.01 0.254
3:55 am 03:55 Clear with Mist and Fog 64 18 N/A N/A Calm 29.82 1010 3 4.82802 0.01 0.254
4:15 am 04:15 Mostly Cloudy with Mist and Fog 66 19 N/A N/A Calm 29.83 1010 4 6.43736 0 0
4:35 am 04:35 Mostly Cloudy with Haze 66 19 N/A N/A Calm 29.84 1010 5 8.0467 0 0
4:55 am 04:55 Cloudy with Mist and Fog 66 19 66 19 100 100 Calm 29.83 1010 5 8.0467 0 0
5:15 am 05:15 Mostly Cloudy with Mist and Fog 66 19 66 19 100 100 Calm 29.84 1010 3.5 5.63269 0 0
5:35 am 05:35 Cloudy with Mist and Fog 67 19.3 67 19.2 99 99 Calm 29.83 1010 5 8.0467 0 0
5:55 am 05:55 Clear with Mist and Fog 67 19.3 67 19.2 99 99 N 3 6 29.82 1010 4 6.43736 0 0
6:15 am 06:15 Partly Cloudy with Mist and Fog 67 19.5 67 19.4 99 99 E 3 6 29.82 1010 3.5 5.63269 0 0
6:35 am 06:35 Partly Cloudy with Mist and Fog 67 19.3 67 19.2 99 99 Calm 29.82 1010 3 4.82802 0 0
6:55 am 06:55 Mostly Cloudy with Mist and Fog 66 19.1 66 19.1 100 100 Calm 29.81 1009 3.5 5.63269 0 0
7:15 am 07:15 Partly Cloudy with Mist and Fog 68 20 68 20 100 100 Calm 29.81 1010 2.5 4.02335 0 0
7:35 am 07:35 Partly Cloudy with Mist and Fog 68 20 68 20 100 100 Calm 29.82 1010 4 6.43736 0 0
7:55 am 07:55 Cloudy with Mist and Fog 69 20.4 68 20.2 99 99 W 3 6 29.84 1011 5 8.0467 0 0
8:15 am 08:15 Mostly Cloudy with Mist and Fog 70 21 69 20.7 98 98 Calm 29.84 1011 5 8.0467 0 0
8:35 am 08:35 Sunny 72 22.2 69 20.8 92 92 SSE 3 6 29.82 1010 10 16.0934 0 0
8:55 am 08:55 Sunny 74 23.3 69 20.6 85 85 S 3 6 29.82 1010 10 16.0934 0 0
9:15 am 09:15 Sunny 75 24 68 20 78 78 S 6 9 29.83 1010 10 16.0934 0 0
9:35 am 09:35 Sunny 76 24.5 69 20.3 78 78 S 7 11 29.81 1010 10 16.0934 0 0
9:55 am 09:55 Sunny 77 24.9 69 20.5 77 77 SSW 6 9 29.81 1010 10 16.0934 0 0
10:15 am 10:15 Sunny 78 25.6 70 20.9 75 75 S 8 13 29.81 1010 10 16.0934 0 0
10:35 am 10:35 Partly Cloudy 78 25.6 69 20.8 75 75 SW 8 13 29.81 1010 10 16.0934 0 0
10:55 am 10:55 Partly Cloudy 80 26.6 70 21 71 71 WSW 9 15 29.82 1010 10 16.0934 0 0
11:15 am 11:15 Partly Cloudy 80 26.6 71 21.4 73 73 SW 9 15 29.82 1010 10 16.0934 0 0
11:35 am 11:35 Partly Cloudy 80 26.8 70 21.3 72 72 SW 7 11 29.82 1010 10 16.0934 0 0
11:55 am 11:55 Mostly Cloudy 78 25.8 71 21.5 77 77 WSW 8 13 29.82 1010 10 16.0934 0 0
12:15 pm 12:15 Mostly Cloudy 80 26.9 71 21.9 74 74 W 12 19 29.84 1010 10 16.0934 0 0
12:35 pm 12:35 Mostly Cloudy 82 28 71 21.8 69 69 WSW 14 22 29.83 1010 10 16.0934 0 0
12:55 pm 12:55 Sunny 82 28 71 21.8 69 69 WSW 13 20 29.81 1009 10 16.0934 0 0
1:15 pm 13:15 Sunny 83 28.3 72 22.1 69 69 SW 13 20 29.8 1009 10 16.0934 0 0
1:35 pm 13:35 Mostly Cloudy 82 27.8 72 22.1 71 71 W 13 20 29.8 1009 10 16.0934 0 0
1:55 pm 13:55 Cloudy with Mist and Fog 70 20.9 66 18.9 88 88 W 24 39 29.83 1010 2.5 4.02335 0.12 3.048
2:15 pm 14:15 Cloudy with Nearby Thunderstorms 71 21.4 68 19.9 91 91 SW 6 9 29.82 1010 7 11.26538 0.09 2.286
2:35 pm 14:35 Cloudy with Light Rain 72 22.1 70 20.9 93 93 SW 7 11 29.82 1010 10 16.0934 0.1 2.54
2:55 pm 14:55 Cloudy with Light Rain 72 22.4 70 21.3 94 94 WSW 3 6 29.82 1010 10 16.0934 0.12 3.048
3:15 pm 15:15 Partly Cloudy 73 22.8 71 21.7 94 94 SSW 3 6 29.82 1010 10 16.0934 0 0
3:35 pm 15:35 Sunny 75 23.7 72 22.1 91 91 SSW 5 7 29.81 1009 10 16.0934 0 0
3:55 pm 15:55 Sunny 78 25.3 73 22.9 87 87 SW 7 11 29.8 1009 10 16.0934 0 0
4:15 pm 16:15 Sunny 78 25.8 74 23.1 85 85 SW 7 11 29.78 1009 10 16.0934 0 0
4:35 pm 16:35 Sunny 80 26.5 73 23 81 81 SW 7 11 29.78 1008 10 16.0934 0 0
4:55 pm 16:55 Partly Cloudy 80 26.9 73 22.5 77 77 SW 6 9 29.77 1008 10 16.0934 0 0
5:15 pm 17:15 Sunny 82 27.7 71 21.9 71 71 SW 6 9 29.77 1008 10 16.0934 0 0
5:35 pm 17:35 Sunny 82 27.7 69 20.6 65 65 SW 7 11 29.77 1008 10 16.0934 0 0
5:55 pm 17:55 Sunny 82 27.7 69 20.3 64 64 SW 8 13 29.77 1008 10 16.0934 0 0
6:15 pm 18:15 Sunny 83 28.1 68 20.1 62 62 WSW 7 11 29.77 1008 10 16.0934 0 0
6:35 pm 18:35 Mostly Cloudy 81 27.2 69 20.5 67 67 SW 6 9 29.77 1008 10 16.0934 0 0
6:55 pm 18:55 Partly Cloudy 80 26.7 69 20.5 69 69 SSW 5 7 29.78 1008 10 16.0934 0 0
7:15 pm 19:15 Sunny 80 26.4 67 19.7 67 67 SSW 7 11 29.79 1009 10 16.0934 0 0
7:35 pm 19:35 Sunny 79 26.1 68 20 69 69 SSW 7 11 29.78 1008 10 16.0934 0 0
7:55 pm 19:55 Sunny 78 25.3 69 20.7 76 76 SSW 13 20 29.78 1009 10 16.0934 0 0
8:15 pm 20:15 Sunny 78 25.5 70 21.3 78 78 SSW 9 15 29.79 1009 10 16.0934 0 0
8:35 pm 20:35 Sunny 77 25.1 69 20.8 77 77 SSW 12 19 29.81 1010 10 16.0934 0 0
8:55 pm 20:55 Sunny 76 24.6 69 20.8 79 79 SSW 8 13 29.81 1010 10 16.0934 0 0
9:15 pm 21:15 Partly Cloudy with Nearby Thunderstorms 76 24.3 69 20.5 79 79 S 9 15 29.81 1010 10 16.0934 0 0
9:35 pm 21:35 Partly Cloudy with Nearby Thunderstorms 75 24 70 21 83 83 S 6 9 29.83 1010 10 16.0934 0 0
9:55 pm 21:55 Cloudy 75 23.7 69 20.7 83 83 SW 5 7 29.83 1010 10 16.0934 0 0
10:15 pm 22:15 Clear 74 23.1 69 20.8 87 87 SW 7 11 29.82 1010 10 16.0934 0 0
10:35 pm 22:35 Clear 73 22.7 70 20.9 90 90 WSW 6 9 29.82 1010 10 16.0934 0 0
10:55 pm 22:55 Clear 72 22.3 70 21 92 92 WSW 6 9 29.82 1010 10 16.0934 0 0
11:15 pm 23:15 Clear 72 22.1 70 21.1 94 94 WSW 6 9 29.82 1010 10 16.0934 0 0
11:35 pm 23:35 Clear 71 21.9 70 21 95 95 Calm 29.83 1010 10 16.0934 0 0
11:55 pm 23:55 Cloudy 72 22.1 70 21.2 95 95 SSW 5 7 29.84 1010 10 16.0934 0 0

Powered by AerisWeather